[TLELIST]

Mailing List Information:

  • This mailing list is a public mailing list - anyone may join or leave, at any time.

  • This mailing list is announce-only.

International Space Station (ISS) / Hubble Space Telescope (HST) / Chandra X-Ray Observatory Orbital Data via EMAIL

Privacy Policy:

Private list

Archives:

[TLELIST] Current TLEs

Sent October 1st 2022

HST 1 20580U 90037B 22273.92571675 .00003588 00000-0 19899-3 0 9995 2 20580 28.4691 189.7432 0002710 92.3604 338.5365 15.10943729582183 ISS (ZARYA) 1 25544U 98067A 22274.19759479 .00014979 00000-0 26577-3 0 9998 2 25544 51.6446 171.3620 0002537 314.8685 180.8010 15.50443271361628 CXO 1 25867U 99040B 22276.46843291 .00001072 00000-0 00000+0 0 9995 2 25867 42.3970 226.0198 8918143 239.9523 0.5944 0.37813170 23366 ____________________________________________________________________ These 2-Line ...

[TLELIST] Current TLEs

Sent September 30th 2022

HST 1 20580U 90037B 22272.86410524 .00003112 00000-0 17126-3 0 9996 2 20580 28.4693 196.7816 0002654 81.5416 323.3837 15.10936136582020 ISS (ZARYA) 1 25544U 98067A 22273.35448010 .00014749 00000-0 26205-3 0 9994 2 25544 51.6446 175.5414 0002613 315.0731 151.6002 15.50416819361495 CXO 1 25867U 99040B 22273.82516906 .00001071 00000-0 00000-0 0 9992 2 25867 42.4697 226.2530 8915571 239.8069 0.6749 0.37811419 12198 ____________________________________________________________________ These 2-Line ...

[TLELIST] Current TLEs

Sent September 29th 2022

HST 1 20580U 90037B 22272.22251126 .00002917 00000-0 15987-3 0 9992 2 20580 28.4694 201.0353 0002655 75.3541 72.7834 15.10932260582192 ISS (ZARYA) 1 25544U 98067A 22272.26549602 .00014767 00000-0 26267-3 0 9990 2 25544 51.6450 180.9409 0002599 316.3019 188.2514 15.50383691361327 CXO 1 25867U 99040B 22273.82516906 .00001071 00000-0 00000-0 0 9992 2 25867 42.4697 226.2530 8915571 239.8069 0.6749 0.37811419 12198 ____________________________________________________________________ These 2-Line ...

[TLELIST] Current TLEs

Sent September 28th 2022

HST 1 20580U 90037B 22271.16218949 .00002833 00000-0 15494-3 0 9990 2 20580 28.4694 208.0643 0002625 66.4223 62.8147 15.10926811582031 ISS (ZARYA) 1 25544U 98067A 22271.29875188 .00011405 00000-0 20504-3 0 9997 2 25544 51.6445 185.7292 0002377 302.6655 202.5977 15.50344723361171 CXO 1 25867U 99040B 22273.82516906 .00001071 00000-0 00000+0 0 9991 2 25867 42.4697 226.2530 8915571 239.8069 0.6749 0.37811419 23358 ____________________________________________________________________ These 2-Line ...

[TLELIST] Current TLEs

Sent September 27th 2022

HST 1 20580U 90037B 22270.10230376 .00002817 00000-0 15407-3 0 9997 2 20580 28.4695 215.0912 0002610 55.5754 57.1567 15.10921774581867 ISS (ZARYA) 1 25544U 98067A 22270.26577942 .00010327 00000-0 18661-3 0 9993 2 25544 51.6442 190.8477 0002400 299.6081 196.6119 15.50315881361012 CXO 1 25867U 99040B 22271.18095592 .00001109 00000-0 00000-0 0 9994 2 25867 42.5443 226.4803 8914913 239.6716 0.6234 0.37815004 12181 ____________________________________________________________________ These 2-Line ...

[TLELIST] Current TLEs

Sent September 26th 2022

HST 1 20580U 90037B 22268.11944774 .00002599 00000-0 14131-3 0 9999 2 20580 28.4694 228.2374 0002566 35.4693 70.5118 15.10912352581305 ISS (ZARYA) 1 25544U 98067A 22269.29913644 .00009910 00000-0 17955-3 0 9998 2 25544 51.6427 195.6388 0002460 295.3569 202.3641 15.50293448360860 CXO 1 25867U 99040B 22271.18095592 .00001109 00000-0 00000-0 0 9994 2 25867 42.5443 226.4803 8914913 239.6716 0.6234 0.37815004 12181 ____________________________________________________________________ These 2-Line ...

[TLELIST] Current TLEs

Sent September 25th 2022

HST 1 20580U 90037B 22268.11944774 .00002599 00000-0 14131-3 0 9999 2 20580 28.4694 228.2374 0002566 35.4693 70.5118 15.10912352581563 ISS (ZARYA) 1 25544U 98067A 22268.26504494 .00009058 00000-0 16494-3 0 9993 2 25544 51.6426 200.7636 0002364 290.3100 192.3099 15.50269086360701 CXO 1 25867U 99040B 22268.53629671 .00001146 00000-0 00000-0 0 9991 2 25867 42.6323 226.7575 8915753 239.4896 0.5653 0.37817141 12175 ____________________________________________________________________ These 2-Line ...

[TLELIST] Current TLEs

Sent September 24th 2022

HST 1 20580U 90037B 22266.20616104 .00002265 00000-0 12183-3 0 9995 2 20580 28.4692 240.9224 0002468 14.4280 104.0203 15.10903324581013 ISS (ZARYA) 1 25544U 98067A 22267.36671916 .00008467 00000-0 15481-3 0 9995 2 25544 51.6423 205.2165 0002319 288.7156 217.0844 15.50249678360569 CXO 1 25867U 99040B 22268.53629671 .00001146 00000-0 00000-0 0 9991 2 25867 42.6323 226.7575 8915753 239.4896 0.5653 0.37817141 12175 ____________________________________________________________________ These 2-Line ...

[TLELIST] Current TLEs

Sent September 23rd 2022

HST 1 20580U 90037B 22265.68758586 .00002309 00000-0 12440-3 0 9992 2 20580 28.4692 244.3604 0002455 8.8196 163.3730 15.10901542581206 ISS (ZARYA) 1 25544U 98067A 22266.33611307 .00008093 00000-0 14843-3 0 9995 2 25544 51.6423 210.3247 0002418 283.1297 227.1905 15.50229786360403 CXO 1 25867U 99040B 22268.53629671 .00001146 00000-0 00000-0 0 9991 2 25867 42.6323 226.7575 8915753 239.4896 0.5653 0.37817141 12175 ____________________________________________________________________ These 2-Line ...

[TLELIST] Current TLEs

Sent September 22nd 2022

HST 1 20580U 90037B 22264.69601994 .00002261 00000-0 12163-3 0 9991 2 20580 28.4693 250.9342 0002434 359.0472 169.0786 15.10897064580783 ISS (ZARYA) 1 25544U 98067A 22265.36699292 .00008385 00000-0 15359-3 0 9993 2 25544 51.6422 215.1278 0002410 280.9674 217.3178 15.50214334360254 CXO 1 25867U 99040B 22265.89106424 .00001103 00000-0 00000-0 0 9996 2 25867 42.7218 227.0434 8915220 239.2885 0.4871 0.37814218 12164 ____________________________________________________________________ These 2-Line ...

< < Previous

Index

 

this list's archives:

(archive rss , atom rss/atom )

Administration